GW1239 Weather Reports


time (UTC)temp
C
wind
direction
speed
KPH
gust
KPH
rain 1hr
cm
rain 24hr
cm
rain mn
cm
humidity
%
barometer
mb
20260503190538 14 300 4.8 11.3 0.00 0.03 0.00 38 1012.1
20260503190018 14 338 4.8 11.3 0.00 0.03 0.00 38 1012.1
20260503185518 13 327 6.4 16.1 0.00 0.03 0.00 38 1012.0
20260503185018 13 303 4.8 11.3 0.00 0.03 0.00 38 1012.2
20260503184519 13 320 4.8 12.9 0.00 0.03 0.00 38 1012.2
20260503184019 13 330 4.8 11.3 0.00 0.03 0.00 39 1012.3
20260503183518 13 323 4.8 12.9 0.00 0.03 0.00 38 1012.3
20260503183019 13 323 4.8 11.3 0.00 0.03 0.00 38 1012.4
20260503182519 13 320 4.8 9.7 0.00 0.03 0.00 41 1012.4
20260503182019 12 342 4.8 14.5 0.00 0.03 0.00 41 1012.4
20260503181519 12 322 6.4 14.5 0.00 0.03 0.00 40 1012.4
20260503181019 12 303 4.8 11.3 0.00 0.03 0.00 42 1012.4
20260503180520 13 273 4.8 11.3 0.00 0.03 0.00 41 1012.4
20260503180019 13 336 4.8 11.3 0.00 0.03 0.00 41 1012.5
20260503175539 13 284 3.2 9.7 0.00 0.03 0.00 43 1012.5
20260503175019 13 310 4.8 11.3 0.00 0.03 0.00 40 1012.6
20260503174519 13 314 4.8 9.7 0.00 0.03 0.00 44 1012.6
20260503174017 13 301 4.8 11.3 0.00 0.03 0.00 42 1012.6
20260503173517 12 312 4.8 11.3 0.00 0.03 0.00 43 1012.6
20260503173016 12 320 4.8 14.5 0.00 0.03 0.00 42 1012.7
20260503172520 12 325 4.8 12.9 0.00 0.03 0.00 44 1012.7
20260503172040 11 326 6.4 14.5 0.00 0.03 0.00 43 1012.7
20260503171520 12 270 6.4 19.3 0.00 0.03 0.00 43 1012.7
20260503171020 11 351 4.8 9.7 0.00 0.03 0.00 43 1012.8
20260503170520 11 323 4.8 8.0 0.00 0.03 0.00 46 1012.8
20260503150519 9 306 3.2 9.7 0.00 0.03 0.00 51 1013.4
20260503131018 9 273 4.8 11.3 0.00 0.05 0.00 56 1013.2
20260503130518 8 310 4.8 8.0 0.00 0.05 0.00 58 1013.2
20260503110521 6 282 3.2 6.4 0.00 0.05 0.00 64 1012.5
20260503081518 4 112 0.0 1.6 0.00 0.05 0.00 79 1010.8
20260503081017 4 88 1.6 1.6 0.00 0.05 0.00 78 1010.7
20260503080520 5 95 0.0 1.6 0.00 0.05 0.00 77 1010.7
20260503072518 6 176 0.0 1.6 0.00 0.05 0.00 68 1010.6
20260503072018 6 100 1.6 1.6 0.00 0.05 0.00 68 1010.6
20260503071518 6 77 0.0 1.6 0.00 0.05 0.00 68 1010.6
20260503071159 6 60 0.0 3.2 0.00 0.05 0.00 68 1010.6
20260503070518 6 59 1.6 1.6 0.00 0.05 0.00 68 1010.6
20260503055019 7 288 1.6 3.2 0.00 0.05 0.00 67 1010.9
20260503054520 7 304 1.6 3.2 0.00 0.05 0.00 67 1011.0
20260503054020 8 300 1.6 3.2 0.00 0.05 0.00 68 1011.0
20260503053517 8 299 1.6 3.2 0.00 0.05 0.00 67 1011.0
20260503053017 8 296 1.6 3.2 0.00 0.05 0.00 64 1011.0
20260503052537 8 273 1.6 3.2 0.00 0.05 0.00 64 1011.0
20260503052018 8 279 1.6 3.2 0.00 0.05 0.00 63 1011.0
20260503051517 8 292 1.6 3.2 0.00 0.05 0.00 63 1011.1
20260503051017 8 274 1.6 3.2 0.00 0.05 0.00 63 1011.1
20260503050520 8 281 1.6 4.8 0.00 0.05 0.00 64 1011.1
20260503050021 8 287 1.6 3.2 0.00 0.05 0.00 64 1011.2
20260503045518 8 288 1.6 3.2 0.00 0.05 0.00 63 1011.2
20260503045018 8 286 1.6 3.2 0.00 0.05 0.00 64 1011.3
20260503044538 8 291 1.6 3.2 0.00 0.05 0.00 64 1011.3
20260503044018 8 275 1.6 4.8 0.00 0.05 0.00 65 1011.4
20260503043518 8 294 1.6 3.2 0.00 0.05 0.00 65 1011.4
20260503043019 8 291 1.6 3.2 0.00 0.05 0.00 64 1011.4
20260503042538 8 296 1.6 4.8 0.00 0.05 0.00 64 1011.3
20260503042039 8 295 1.6 3.2 0.00 0.05 0.00 65 1011.4
20260503041518 8 291 1.6 3.2 0.00 0.05 0.00 66 1011.4
20260503041019 8 288 1.6 3.2 0.00 0.05 0.00 64 1011.5
20260503040519 8 293 1.6 3.2 0.00 0.05 0.00 66 1011.5
20260503040019 8 290 1.6 4.8 0.00 0.05 0.00 65 1011.5
20260503035519 8 285 1.6 3.2 0.00 0.05 0.05 64 1011.5
20260503035019 8 281 1.6 6.4 0.00 0.05 0.05 62 1011.5
20260503034519 8 280 1.6 4.8 0.00 0.05 0.05 61 1011.4
20260503034019 8 281 1.6 8.0 0.00 0.05 0.05 62 1011.4
20260503033539 8 287 1.6 3.2 0.00 0.05 0.05 64 1011.4
20260503033019 8 286 1.6 3.2 0.00 0.05 0.05 62 1011.4
20260503032536 8 277 1.6 3.2 0.00 0.05 0.05 61 1011.4
20260503032017 8 277 1.6 6.4 0.00 0.05 0.05 61 1011.4
20260503031519 8 291 1.6 6.4 0.00 0.05 0.05 60 1011.4
20260503031019 8 295 1.6 4.8 0.00 0.05 0.05 63 1011.4
20260503030540 8 287 1.6 3.2 0.00 0.05 0.05 64 1011.5
20260503030020 8 295 1.6 3.2 0.00 0.05 0.05 64 1011.5
20260503025520 8 293 1.6 3.2 0.00 0.05 0.05 63 1011.5
20260503025037 8 294 1.6 3.2 0.00 0.05 0.05 60 1011.6
20260503024516 8 282 1.6 6.4 0.00 0.05 0.05 60 1011.5
20260503024017 9 252 1.6 3.2 0.00 0.05 0.05 60 1011.5
20260503023517 9 284 1.6 3.2 0.00 0.05 0.05 60 1011.5
20260503023017 9 288 1.6 3.2 0.00 0.05 0.05 59 1011.5
20260503022521 10 292 1.6 3.2 0.00 0.05 0.05 60 1011.5
20260503022020 10 283 1.6 3.2 0.00 0.05 0.05 58 1011.5
20260503021601 10 300 1.6 3.2 0.00 0.05 0.05 57 1011.5
20260503021018 10 295 1.6 3.2 0.00 0.05 0.05 58 1011.5
20260503020518 10 287 1.6 4.8 0.00 0.05 0.05 58 1011.4
20260503020018 10 305 1.6 4.8 0.00 0.05 0.05 56 1011.4
20260503015518 10 289 1.6 6.4 0.00 0.05 0.05 58 1011.4
20260503015018 10 294 1.6 3.2 0.00 0.05 0.05 59 1011.4
20260503014518 10 310 1.6 4.8 0.00 0.05 0.05 58 1011.4
20260503014018 10 291 1.6 8.0 0.00 0.05 0.05 58 1011.5
20260503013542 10 294 1.6 3.2 0.00 0.05 0.05 59 1011.3
20260503013018 10 295 1.6 4.8 0.00 0.05 0.05 58 1011.3
20260503012539 10 296 1.6 4.8 0.00 0.05 0.05 56 1011.5
20260503012018 10 301 1.6 3.2 0.00 0.05 0.05 58 1011.5
20260503011518 10 289 1.6 4.8 0.00 0.05 0.05 59 1011.5
20260503011019 10 285 1.6 4.8 0.00 0.05 0.05 60 1011.4
20260503010539 10 298 1.6 3.2 0.00 0.05 0.05 59 1011.4
20260503010039 10 296 1.6 3.2 0.00 0.05 0.05 58 1011.3
20260503005519 11 301 1.6 3.2 0.03 0.05 0.05 58 1011.2
20260503005019 11 286 1.6 3.2 0.03 0.05 0.05 58 1011.1
20260503004539 11 285 1.6 3.2 0.03 0.05 0.05 59 1011.0
20260503004016 11 296 1.6 4.8 0.03 0.05 0.05 57 1011.0
20260503003519 11 297 1.6 3.2 0.03 0.05 0.05 57 1010.9
20260503003020 11 290 1.6 3.2 0.03 0.05 0.05 58 1010.9
20260503002520 11 298 1.6 3.2 0.03 0.05 0.05 54 1010.9
20260503002019 11 275 1.6 3.2 0.03 0.05 0.05 56 1010.8
20260503001520 11 286 1.6 3.2 0.03 0.05 0.05 57 1010.7
20260503001020 11 290 1.6 1.6 0.03 0.05 0.05 56 1010.7
20260503000520 11 295 1.6 3.2 0.03 0.03 0.03 53 1010.7
20260503000020 12 302 0.0 1.6 0.03 0.03 0.03 53 1010.8
20260502235517 12 298 0.0 1.6 0.03 0.03 0.03 53 1010.7
20260502235017 12 311 1.6 1.6 0.03 0.03 0.03 53 1010.6
20260502234517 12 284 1.6 3.2 0.03 0.03 0.03 53 1010.6
20260502234017 12 282 1.6 3.2 0.00 0.03 0.03 51 1010.6
20260502233520 12 301 1.6 3.2 0.00 0.03 0.03 52 1010.5
20260502233020 12 312 1.6 3.2 0.00 0.03 0.03 48 1010.6
20260502232520 12 310 1.6 3.2 0.00 0.03 0.03 49 1010.6
20260502232020 13 321 1.6 3.2 0.00 0.03 0.03 49 1010.7
20260502231518 13 307 1.6 3.2 0.00 0.03 0.03 47 1010.7
20260502231018 13 306 1.6 3.2 0.00 0.03 0.03 44 1010.7
20260502230518 13 288 1.6 8.0 0.00 0.03 0.03 44 1010.6
20260502230018 13 293 3.2 8.0 0.00 0.03 0.03 43 1010.6
20260502225518 14 308 1.6 4.8 0.00 0.03 0.03 42 1010.6
20260502225018 14 307 3.2 6.4 0.00 0.03 0.03 44 1010.6
20260502224519 14 288 3.2 9.7 0.00 0.03 0.03 40 1010.5
20260502224018 14 281 3.2 9.7 0.00 0.03 0.03 40 1010.4
20260502223519 14 261 3.2 4.8 0.00 0.03 0.03 40 1010.4
20260502223018 14 252 1.6 4.8 0.00 0.03 0.03 42 1010.4
20260502222519 14 279 1.6 3.2 0.00 0.03 0.03 44 1010.4
20260502222018 14 274 1.6 3.2 0.00 0.03 0.03 43 1010.3
20260502221519 14 278 1.6 4.8 0.00 0.03 0.03 42 1010.4
20260502221019 15 269 3.2 6.4 0.00 0.03 0.03 41 1010.4
20260502220539 15 300 3.2 6.4 0.00 0.03 0.03 42 1010.4
20260502220019 15 266 1.6 6.4 0.00 0.03 0.03 39 1010.4
20260502215519 15 352 1.6 4.8 0.00 0.03 0.03 39 1010.4
20260502215019 15 315 1.6 4.8 0.00 0.03 0.03 41 1010.5
20260502214519 15 308 3.2 4.8 0.00 0.03 0.03 43 1010.5
20260502214019 15 149 1.6 6.4 0.00 0.03 0.03 40 1010.4
20260502213540 15 123 3.2 4.8 0.00 0.03 0.03 40 1010.4
20260502213019 15 254 3.2 6.4 0.00 0.03 0.03 41 1010.4
20260502212519 15 234 1.6 3.2 0.00 0.03 0.03 42 1010.4
20260502212019 15 270 1.6 3.2 0.00 0.03 0.03 42 1010.3
20260502211519 15 328 1.6 3.2 0.00 0.03 0.03 39 1010.2
20260502211020 16 309 1.6 3.2 0.00 0.03 0.03 42 1010.2
20260502210520 16 242 1.6 4.8 0.00 0.03 0.03 41 1010.1
20260502210017 15 255 1.6 4.8 0.00 0.03 0.03 42 1010.1
20260502205537 16 268 3.2 8.0 0.00 0.03 0.03 40 1010.1
20260502205038 16 312 3.2 8.0 0.00 0.03 0.03 39 1010.1
20260502204517 16 247 3.2 8.0 0.00 0.03 0.03 40 1010.1
20260502204017 16 273 3.2 6.4 0.00 0.03 0.03 40 1010.2
20260502203520 16 252 1.6 4.8 0.00 0.03 0.03 42 1010.2
20260502203020 15 291 3.2 8.0 0.00 0.03 0.03 42 1010.2
20260502202520 15 274 3.2 8.0 0.00 0.03 0.03 41 1010.2
20260502202018 15 275 3.2 9.7 0.00 0.03 0.03 43 1010.3
20260502201538 15 318 3.2 6.4 0.00 0.03 0.03 43 1010.3
20260502201018 15 277 3.2 6.4 0.00 0.03 0.03 45 1010.4
20260502200518 15 266 3.2 8.0 0.00 0.03 0.03 44 1010.4
20260502200018 15 280 4.8 9.7 0.00 0.03 0.03 42 1010.5
20260502195518 15 274 3.2 8.0 0.00 0.03 0.03 43 1010.6
20260502195018 15 41 1.6 3.2 0.00 0.03 0.03 44 1010.6
20260502194538 15 327 3.2 9.7 0.00 0.03 0.03 44 1010.7
20260502194018 15 350 3.2 6.4 0.00 0.03 0.03 43 1010.8
20260502193518 15 273 3.2 9.7 0.00 0.03 0.03 42 1010.8
20260502193018 15 302 3.2 8.0 0.00 0.03 0.03 43 1011.0
20260502192519 15 302 3.2 9.7 0.00 0.03 0.03 44 1011.1
20260502192019 15 305 3.2 6.4 0.00 0.03 0.03 42 1011.1
20260502191519 15 274 3.2 9.7 0.00 0.03 0.03 47 1011.2
20260502191019 15 330 3.2 6.4 0.00 0.03 0.03 42 1011.2